Flag for U.S.A. Weather past 2 weeks in Rockford, Illinois, U.S.A.

Now
78 °F

Scattered clouds.


Feels Like: 79 °F
Forecast: 57 / 77 °F
Wind: 12 mph from Northwest

Location: Greater Rockford Airport

Current Time: Jul 30, 2014 at 3:02:02 PM

Latest Report: Jul 30, 2014 at 1:54 PM


Visibility: 10 mi

Pressure: 30.04 "Hg

Humidity: 50%

Dew point: 58 °F

Location of RockfordLocation

Historic Weather in Rockford — Graph

°F

Rockford temperature yesterday

Maximum temperature yesterday: 79 °F (at 2:54 PM)
Minimum temperature yesterday: 56 °F (at 4:54 AM)
Average temperature yesterday: 68 °F

Past Weeks' High & Low Weather Summary

 TemperatureHumidityPressure
High86 °F (Jul 22, 6:54 PM)93% (Jul 26, 11:54 PM)30.20 "Hg (Jul 26, 11:54 PM)
Low52 °F (Jul 16, 5:54 AM)40% (Jul 24, 11:54 AM)29.75 "Hg (Jul 27, 11:54 AM)
Average69 °F68%30.03 "Hg
* Reported Jul 15 1:54 PM — Jul 30 1:54 PM, Rockford, Weather by CustomWeather, © 2014

Note: Actual official high and low records may vary slightly from our data, if they occured in-between our weather recording intervals... More about our weather records

Advertising

Rockford weather history for previous 24 hours

 ConditionsComfort  
Time TempWeatherWind HumidityBarometerVisibility
1:54 PM
Jul 30
78 °FScattered clouds.12 mph50%30.04 "Hg10 mi
12:54 PM76 °FPartly sunny.9 mph52%30.05 "Hg10 mi
11:54 AM75 °FPassing clouds.8 mph54%30.07 "Hg10 mi
10:54 AM74 °FPassing clouds.9 mph56%30.06 "Hg10 mi
9:54 AM71 °FSunny.6 mph61%30.06 "Hg10 mi
8:54 AM68 °FSunny.5 mph70%30.06 "Hg10 mi
7:54 AM64 °FScattered clouds.5 mph78%30.06 "Hg10 mi
6:54 AM60 °FScattered clouds.3 mph86%30.05 "Hg10 mi
5:54 AM59 °FPassing clouds.No wind87%30.05 "Hg10 mi
4:54 AM58 °FMostly cloudy.No wind90%30.04 "Hg10 mi
3:54 AM58 °FPassing clouds.No wind87%30.03 "Hg10 mi
2:54 AM60 °FOvercast.No wind80%30.03 "Hg10 mi
1:54 AM60 °FPassing clouds.6 mph86%30.04 "Hg10 mi
12:54 AM62 °FPassing clouds.No wind78%30.05 "Hg10 mi
11:54 PM
Jul 29
65 °FPartly cloudy.No wind66%30.06 "Hg10 mi
10:54 PM67 °FPassing clouds.9 mph59%30.05 "Hg10 mi
9:54 PM67 °FPartly cloudy.6 mph61%30.02 "Hg10 mi
8:54 PM70 °FBroken clouds.12 mph57%30.02 "Hg10 mi
7:54 PM72 °FBroken clouds.8 mph49%30.01 "Hg10 mi
6:54 PM75 °FBroken clouds.14 mph52%30.01 "Hg10 mi
5:54 PM78 °FBroken clouds.9 mph50%30.01 "Hg10 mi
4:54 PM73 °FPartly sunny.14 mph57%30.02 "Hg10 mi
3:54 PM79 °FScattered clouds.9 mph47%30.03 "Hg10 mi
Weather by CustomWeather, © 2014

See weather overviewHow to use our weather pages